1998-067PC

Last updated on Mon Sep 28 2020 00:02:09 GMT+0000 (Coordinated Universal Time)

1 43554U 98067PC 20270.57593485 .04847927 12138-4 97747-3 0 9995 2 43554 51.6160 101.1275 0010186 278.2959 81.6908 16.30403101126085

Satellite not in orbit